Flag for Norway Weather past 2 weeks in Stange, Norway

Now
58 °F

Cool.


Feels Like: 58 °F
Forecast: 44 / 69 °F
Wind: 2 mph from Southwest

Location: Haugedalshogda

Current Time: Aug 30, 2015 at 9:06:55 PM

Latest Report: Aug 30, 2015 at 8:00 PM


Visibility: N/A

Pressure: 30.03 "Hg

Humidity: 61%

Dew point: 45 °F

Location of StangeLocation

Historic Weather in Stange — Graph

°F

Stange temperature yesterday

Maximum temperature yesterday: 66 °F (at 2:00 PM)
Minimum temperature yesterday: 42 °F (at 6:00 AM)
Average temperature yesterday: 54 °F

Past Weeks' High & Low Weather Summary

 TemperatureHumidityPressure
High77 °F (Aug 23, 6:00 PM)96% (Aug 17, 7:00 AM)30.46 "Hg (Aug 17, 7:00 AM)
Low32 °F (Aug 22, 5:00 AM)21% (Aug 19, 3:00 PM)29.47 "Hg (Aug 27, 8:00 PM)
Average57 °F70%30.10 "Hg
* Reported Aug 15 7:00 PM — Aug 30 7:00 PM, Stange, Weather by CustomWeather, © 2015

Note: Actual official high and low records may vary slightly from our data, if they occured in-between our weather recording intervals... More about our weather records

Advertising

Stange weather history for previous 24 hours

 ConditionsComfort  
Time TempWeatherWind HumidityBarometerVisibility
7:00 PM
Sun, Aug 30
66 °FMild.3 mph48%30.00 "HgN/A
6:00 PM68 °FMild.5 mph40%30.00 "HgN/A
5:00 PM65 °FMild.5 mph47%30.01 "HgN/A
4:00 PM69 °FMild.6 mph40%30.01 "HgN/A
3:00 PM69 °FMild.5 mph44%30.01 "HgN/A
2:00 PM65 °FMild.5 mph46%30.02 "HgN/A
1:00 PM68 °FMild.5 mph42%30.01 "HgN/A
12:00 PM65 °FMild.3 mph48%30.01 "HgN/A
11:00 AM62 °FRefreshingly cool.2 mph59%30.03 "HgN/A
10:00 AM57 °FCool.1 mph77%30.04 "HgN/A
9:00 AM47 °FCool.1 mph95%30.06 "HgN/A
8:00 AM46 °FCool.1 mph96%30.04 "HgN/A
7:00 AM40 °FQuite cool.1 mph96%30.05 "HgN/A
6:00 AM37 °FChilly.No wind94%30.05 "HgN/A
5:00 AM39 °FChilly.1 mph94%30.04 "HgN/A
4:00 AM43 °FQuite cool.1 mph94%30.03 "HgN/A
3:00 AM44 °FQuite cool.2 mph94%30.02 "HgN/A
2:00 AM46 °FCool.1 mph90%30.01 "HgN/A
1:00 AM49 °FCool.1 mph88%30.01 "HgN/A
12:00 AM50 °FCool.3 mph87%30.00 "HgN/A
10:00 PM
Sat, Aug 29
51 °FCool.3 mph79%29.99 "HgN/A
9:00 PM55 °FCool.2 mph71%29.98 "HgN/A
Weather by CustomWeather, © 2015

See weather overviewHow to use our weather pages